| time (UTC) | temp F | wind direction | speed MPH | gust MPH | rain 1hr in | rain 24hr in | rain mn in | humidity % | barometer mb |
| 20260508174040 | 68 | 252 | 2.0 | 3.0 | 0.00 | 0.00 | 0.00 | 50 | 1015.6 |
| 20260508173539 | 67 | 298 | 0.0 | 3.0 | 0.00 | 0.00 | 0.00 | 50 | 1015.5 |
| 20260508173039 | 67 | 312 | 0.0 | 3.0 | 0.00 | 0.00 | 0.00 | 47 | 1015.6 |
| 20260508172538 | 67 | 123 | 1.0 | 3.0 | 0.00 | 0.00 | 0.00 | 43 | 1015.7 |
| 20260508172038 | 67 | 349 | 0.0 | 3.0 | 0.00 | 0.00 | 0.00 | 51 | 1015.7 |
| 20260508171546 | 67 | 347 | 1.0 | 3.0 | 0.00 | 0.00 | 0.00 | 48 | 1015.7 |
| 20260508171037 | 67 | 301 | 1.0 | 3.0 | 0.00 | 0.00 | 0.00 | 50 | 1015.8 |
| 20260508170538 | 67 | 239 | 0.0 | 3.0 | 0.00 | 0.00 | 0.00 | 44 | 1015.7 |
| 20260508170036 | 66 | 279 | 1.0 | 3.0 | 0.00 | 0.00 | 0.00 | 45 | 1015.8 |
| 20260508165535 | 66 | 80 | 1.0 | 2.0 | 0.00 | 0.00 | 0.00 | 52 | 1016.0 |
| 20260508165036 | 66 | 286 | 1.0 | 3.0 | 0.00 | 0.00 | 0.00 | 47 | 1016.2 |
| 20260508164535 | 66 | 330 | 1.0 | 4.0 | 0.00 | 0.00 | 0.00 | 43 | 1016.3 |
| 20260508164036 | 66 | 84 | 1.0 | 4.0 | 0.00 | 0.00 | 0.00 | 43 | 1016.6 |
| 20260508163535 | 66 | 92 | 1.0 | 5.0 | 0.00 | 0.00 | 0.00 | 46 | 1016.6 |
| 20260508163033 | 66 | 56 | 1.0 | 3.0 | 0.00 | 0.00 | 0.00 | 48 | 1016.7 |
| 20260508162533 | 65 | 184 | 1.0 | 2.0 | 0.00 | 0.00 | 0.00 | 52 | 1016.8 |
| 20260508162034 | 65 | 261 | 0.0 | 4.0 | 0.00 | 0.00 | 0.00 | 44 | 1016.7 |
| 20260508161537 | 65 | 82 | 1.0 | 4.0 | 0.00 | 0.00 | 0.00 | 44 | 1016.9 |
| 20260508161031 | 65 | 90 | 2.0 | 4.0 | 0.00 | 0.00 | 0.00 | 46 | 1017.1 |
| 20260508160530 | 65 | 140 | 1.0 | 4.0 | 0.00 | 0.00 | 0.00 | 48 | 1017.0 |
| 20260508160035 | 65 | 151 | 1.0 | 4.0 | 0.00 | 0.00 | 0.00 | 57 | 1017.1 |
| 20260508155533 | 64 | 123 | 0.0 | 4.0 | 0.00 | 0.00 | 0.00 | 48 | 1017.3 |
| 20260508155030 | 64 | 5 | 1.0 | 3.0 | 0.00 | 0.00 | 0.00 | 53 | 1017.1 |
| 20260508154529 | 64 | 103 | 1.0 | 3.0 | 0.00 | 0.00 | 0.00 | 60 | 1017.2 |
| 20260508154026 | 63 | 192 | 1.0 | 3.0 | 0.00 | 0.00 | 0.00 | 53 | 1017.2 |
| 20260508153526 | 63 | 264 | 1.0 | 3.0 | 0.00 | 0.00 | 0.00 | 56 | 1017.3 |
| 20260508153025 | 63 | 311 | 1.0 | 3.0 | 0.00 | 0.00 | 0.00 | 60 | 1017.4 |
| 20260508152525 | 63 | 277 | 1.0 | 3.0 | 0.00 | 0.00 | 0.00 | 61 | 1017.5 |
| 20260508152026 | 62 | 240 | 0.0 | 2.0 | 0.00 | 0.00 | 0.00 | 64 | 1017.5 |
| 20260508151523 | 62 | 265 | 1.0 | 2.0 | 0.00 | 0.00 | 0.00 | 61 | 1017.6 |
| 20260508151026 | 62 | 343 | 0.0 | 2.0 | 0.00 | 0.00 | 0.00 | 66 | 1017.6 |
| 20260508150521 | 61 | 343 | 1.0 | 2.0 | 0.00 | 0.00 | 0.00 | 68 | 1017.6 |
| 20260508150023 | 61 | 315 | 1.0 | 2.0 | 0.00 | 0.00 | 0.00 | 64 | 1017.6 |
| 20260508145519 | 60 | 305 | 0.0 | 2.0 | 0.00 | 0.00 | 0.00 | 67 | 1017.7 |
| 20260508145020 | 60 | 266 | 0.0 | 2.0 | 0.00 | 0.00 | 0.00 | 72 | 1017.7 |
| 20260508144534 | 59 | 266 | 1.0 | 2.0 | 0.00 | 0.00 | 0.00 | 69 | 1017.7 |
| 20260508144017 | 59 | 266 | 1.0 | 2.0 | 0.00 | 0.00 | 0.00 | 68 | 1017.8 |
| 20260508143516 | 58 | 266 | 0.0 | 2.0 | 0.00 | 0.00 | 0.00 | 71 | 1017.8 |
| 20260508143025 | 58 | 263 | 0.0 | 2.0 | 0.00 | 0.00 | 0.00 | 75 | 1017.9 |
| 20260508142513 | 58 | 319 | 1.0 | 2.0 | 0.00 | 0.00 | 0.00 | 73 | 1017.9 |
| 20260508142014 | 58 | 148 | 0.0 | 1.0 | 0.00 | 0.00 | 0.00 | 74 | 1018.0 |
| 20260508141520 | 58 | 130 | 0.0 | 1.0 | 0.00 | 0.00 | 0.00 | 74 | 1017.9 |
| 20260508141012 | 57 | 130 | 0.0 | 2.0 | 0.00 | 0.00 | 0.00 | 75 | 1017.9 |
| 20260508140510 | 57 | 115 | 0.0 | 3.0 | 0.00 | 0.00 | 0.00 | 76 | 1017.9 |
| 20260508140009 | 57 | 103 | 0.0 | 3.0 | 0.00 | 0.00 | 0.00 | 76 | 1017.9 |
| 20260508135512 | 56 | 103 | 1.0 | 3.0 | 0.00 | 0.00 | 0.00 | 76 | 1017.9 |
| 20260508135007 | 56 | 72 | 0.0 | 1.0 | 0.00 | 0.00 | 0.00 | 78 | 1018.0 |
| 20260508134506 | 55 | 74 | 0.0 | 2.0 | 0.00 | 0.00 | 0.00 | 79 | 1017.9 |
| 20260508134006 | 55 | 74 | 0.0 | 3.0 | 0.00 | 0.00 | 0.00 | 78 | 1017.9 |
| 20260508133506 | 55 | 91 | 0.0 | 3.0 | 0.00 | 0.00 | 0.00 | 81 | 1017.9 |
| 20260508133002 | 54 | 85 | 0.0 | 2.0 | 0.00 | 0.00 | 0.00 | 81 | 1017.9 |
| 20260508132501 | 53 | 85 | 0.0 | 1.0 | 0.00 | 0.00 | 0.00 | 83 | 1017.9 |
| 20260508132002 | 53 | 85 | 0.0 | 1.0 | 0.00 | 0.00 | 0.00 | 84 | 1018.0 |
| 20260508131502 | 52 | 85 | 0.0 | 1.0 | 0.00 | 0.00 | 0.00 | 86 | 1017.9 |
| 20260508131101 | 51 | 85 | 0.0 | 0.0 | 0.00 | 0.00 | 0.00 | 88 | 1018.1 |
| 20260508130601 | 51 | 85 | 0.0 | 0.0 | 0.00 | 0.00 | 0.00 | 92 | 1018.0 |
| 20260508130100 | 50 | 85 | 0.0 | 0.0 | 0.00 | 0.00 | 0.00 | 92 | 1017.9 |
| 20260508125559 | 50 | 85 | 0.0 | 0.0 | 0.00 | 0.00 | 0.00 | 93 | 1018.0 |
| 20260508125059 | 50 | 85 | 0.0 | 0.0 | 0.00 | 0.00 | 0.00 | 93 | 1018.0 |
| 20260508124603 | 49 | 85 | 0.0 | 0.0 | 0.00 | 0.00 | 0.00 | 94 | 1018.0 |
| 20260508124102 | 49 | 85 | 0.0 | 0.0 | 0.00 | 0.00 | 0.00 | 93 | 1018.1 |
| 20260508123559 | 49 | 85 | 0.0 | 0.0 | 0.00 | 0.00 | 0.00 | 94 | 1018.1 |
| 20260508123058 | 48 | 85 | 0.0 | 0.0 | 0.00 | 0.00 | 0.00 | 94 | 1018.2 |
| 20260508122556 | 48 | 85 | 0.0 | 1.0 | 0.00 | 0.00 | 0.00 | 94 | 1018.0 |
| 20260508122056 | 47 | 85 | 0.0 | 1.0 | 0.00 | 0.00 | 0.00 | 94 | 1017.9 |
| 20260508121556 | 47 | 85 | 0.0 | 0.0 | 0.00 | 0.00 | 0.00 | 94 | 1017.9 |
| 20260508121055 | 46 | 85 | 0.0 | 0.0 | 0.00 | 0.00 | 0.00 | 94 | 1017.8 |
| 20260508120554 | 46 | 85 | 0.0 | 1.0 | 0.00 | 0.00 | 0.00 | 94 | 1017.8 |
| 20260508120054 | 46 | 85 | 0.0 | 0.0 | 0.00 | 0.00 | 0.00 | 93 | 1017.6 |
| 20260508115553 | 46 | 85 | 0.0 | 0.0 | 0.00 | 0.00 | 0.00 | 93 | 1017.6 |
| 20260508115053 | 45 | 99 | 0.0 | 0.0 | 0.00 | 0.00 | 0.00 | 93 | 1017.6 |
| 20260508114555 | 45 | 99 | 0.0 | 0.0 | 0.00 | 0.00 | 0.00 | 93 | 1017.4 |
| 20260508114050 | 45 | 99 | 0.0 | 0.0 | 0.00 | 0.00 | 0.00 | 93 | 1017.2 |
| 20260508113550 | 45 | 99 | 0.0 | 0.0 | 0.00 | 0.00 | 0.00 | 92 | 1017.0 |
| 20260508113121 | 45 | 99 | 0.0 | 0.0 | 0.00 | 0.00 | 0.00 | 93 | 1016.9 |
| 20260508112550 | 45 | 99 | 0.0 | 0.0 | 0.00 | 0.00 | 0.00 | 93 | 1016.9 |
| 20260508112048 | 45 | 99 | 0.0 | 0.0 | 0.00 | 0.00 | 0.00 | 92 | 1016.8 |
| 20260508111547 | 45 | 99 | 0.0 | 0.0 | 0.00 | 0.00 | 0.00 | 92 | 1016.7 |
| 20260508111047 | 45 | 99 | 0.0 | 0.0 | 0.00 | 0.00 | 0.00 | 92 | 1016.6 |
| 20260508110545 | 45 | 99 | 0.0 | 0.0 | 0.00 | 0.00 | 0.00 | 92 | 1016.6 |
| 20260508110045 | 45 | 99 | 0.0 | 0.0 | 0.00 | 0.00 | 0.00 | 92 | 1016.6 |
| 20260508105546 | 45 | 99 | 0.0 | 0.0 | 0.00 | 0.00 | 0.00 | 92 | 1016.5 |
| 20260508105045 | 45 | 99 | 0.0 | 0.0 | 0.00 | 0.00 | 0.00 | 92 | 1016.4 |
| 20260508104553 | 45 | 99 | 0.0 | 0.0 | 0.00 | 0.00 | 0.00 | 92 | 1016.3 |
| 20260508104042 | 45 | 99 | 0.0 | 0.0 | 0.00 | 0.00 | 0.00 | 92 | 1016.2 |
| 20260508103542 | 45 | 99 | 0.0 | 0.0 | 0.00 | 0.00 | 0.00 | 92 | 1016.2 |
| 20260508103041 | 45 | 99 | 0.0 | 0.0 | 0.00 | 0.00 | 0.00 | 92 | 1016.2 |
| 20260508102539 | 45 | 99 | 0.0 | 0.0 | 0.00 | 0.00 | 0.00 | 92 | 1016.1 |
| 20260508102040 | 46 | 99 | 0.0 | 0.0 | 0.00 | 0.00 | 0.00 | 92 | 1016.0 |
| 20260508101542 | 46 | 99 | 0.0 | 0.0 | 0.00 | 0.00 | 0.00 | 92 | 1015.8 |
| 20260508101039 | 46 | 99 | 0.0 | 0.0 | 0.00 | 0.00 | 0.00 | 92 | 1015.7 |
| 20260508100537 | 46 | 99 | 0.0 | 0.0 | 0.00 | 0.00 | 0.00 | 92 | 1015.7 |
| 20260508100039 | 46 | 99 | 0.0 | 0.0 | 0.00 | 0.00 | 0.00 | 92 | 1015.8 |
| 20260508095539 | 46 | 99 | 0.0 | 0.0 | 0.00 | 0.10 | 0.00 | 92 | 1015.8 |
| 20260508095036 | 46 | 99 | 0.0 | 0.0 | 0.00 | 0.10 | 0.00 | 92 | 1015.8 |
| 20260508094535 | 46 | 99 | 0.0 | 1.0 | 0.00 | 0.10 | 0.00 | 92 | 1015.8 |
| 20260508094035 | 46 | 99 | 0.0 | 1.0 | 0.00 | 0.10 | 0.00 | 92 | 1015.8 |
| 20260508093535 | 47 | 99 | 0.0 | 0.0 | 0.00 | 0.10 | 0.00 | 92 | 1015.7 |
| 20260508093034 | 47 | 99 | 0.0 | 0.0 | 0.00 | 0.10 | 0.00 | 92 | 1015.7 |
| 20260508092534 | 47 | 99 | 0.0 | 0.0 | 0.00 | 0.10 | 0.00 | 92 | 1015.7 |
| 20260508092033 | 47 | 99 | 0.0 | 0.0 | 0.00 | 0.10 | 0.00 | 92 | 1015.5 |
| 20260508091534 | 47 | 99 | 0.0 | 0.0 | 0.00 | 0.10 | 0.00 | 92 | 1015.5 |
| 20260508091032 | 47 | 99 | 0.0 | 1.0 | 0.00 | 0.10 | 0.00 | 92 | 1015.6 |
| 20260508090532 | 47 | 99 | 0.0 | 1.0 | 0.00 | 0.10 | 0.00 | 92 | 1015.5 |
| 20260508090042 | 47 | 99 | 0.0 | 0.0 | 0.00 | 0.10 | 0.00 | 92 | 1015.4 |
| 20260508085531 | 47 | 99 | 0.0 | 0.0 | 0.00 | 0.17 | 0.00 | 92 | 1015.3 |
| 20260508085030 | 47 | 99 | 0.0 | 0.0 | 0.00 | 0.17 | 0.00 | 92 | 1015.3 |
| 20260508084531 | 47 | 99 | 0.0 | 0.0 | 0.00 | 0.17 | 0.00 | 92 | 1015.4 |
| 20260508084033 | 47 | 99 | 0.0 | 0.0 | 0.00 | 0.17 | 0.00 | 92 | 1015.4 |
| 20260508083530 | 47 | 99 | 0.0 | 0.0 | 0.00 | 0.17 | 0.00 | 92 | 1015.4 |
| 20260508083037 | 47 | 99 | 0.0 | 0.0 | 0.00 | 0.17 | 0.00 | 92 | 1015.3 |
| 20260508082530 | 47 | 99 | 0.0 | 0.0 | 0.00 | 0.17 | 0.00 | 92 | 1015.4 |
| 20260508082028 | 47 | 99 | 0.0 | 0.0 | 0.00 | 0.17 | 0.00 | 92 | 1015.4 |
| 20260508081528 | 48 | 99 | 0.0 | 0.0 | 0.00 | 0.17 | 0.00 | 91 | 1015.3 |
| 20260508081027 | 48 | 99 | 0.0 | 0.0 | 0.00 | 0.17 | 0.00 | 92 | 1015.4 |
| 20260508080527 | 48 | 99 | 0.0 | 0.0 | 0.00 | 0.17 | 0.00 | 91 | 1015.4 |
| 20260508080027 | 48 | 99 | 0.0 | 0.0 | 0.00 | 0.17 | 0.00 | 91 | 1015.3 |
| 20260508075529 | 48 | 99 | 0.0 | 0.0 | 0.00 | 0.17 | 0.00 | 91 | 1015.3 |
| 20260508075025 | 48 | 99 | 0.0 | 0.0 | 0.00 | 0.17 | 0.00 | 91 | 1015.4 |
| 20260508074525 | 48 | 99 | 0.0 | 0.0 | 0.00 | 0.17 | 0.00 | 91 | 1015.5 |
| 20260508074025 | 48 | 99 | 0.0 | 0.0 | 0.00 | 0.17 | 0.00 | 91 | 1015.4 |
| 20260508073524 | 48 | 99 | 0.0 | 0.0 | 0.00 | 0.17 | 0.00 | 91 | 1015.5 |
| 20260508073024 | 48 | 99 | 0.0 | 0.0 | 0.00 | 0.17 | 0.00 | 91 | 1015.5 |
| 20260508072527 | 49 | 99 | 0.0 | 0.0 | 0.00 | 0.17 | 0.00 | 91 | 1015.6 |
| 20260508072022 | 49 | 99 | 0.0 | 0.0 | 0.00 | 0.17 | 0.00 | 91 | 1015.5 |
| 20260508071522 | 49 | 99 | 0.0 | 0.0 | 0.00 | 0.17 | 0.00 | 91 | 1015.5 |
| 20260508071021 | 49 | 99 | 0.0 | 0.0 | 0.00 | 0.17 | 0.00 | 91 | 1015.7 |
| 20260508070524 | 49 | 99 | 0.0 | 0.0 | 0.00 | 0.17 | 0.00 | 91 | 1015.6 |
| 20260508070021 | 49 | 99 | 0.0 | 0.0 | 0.00 | 0.17 | 0.00 | 90 | 1015.6 |
| 20260508065520 | 49 | 99 | 0.0 | 0.0 | 0.00 | 0.17 | 0.00 | 90 | 1015.5 |
| 20260508065022 | 49 | 99 | 0.0 | 0.0 | 0.00 | 0.17 | 0.00 | 90 | 1015.5 |
| 20260508064545 | 49 | 99 | 0.0 | 0.0 | 0.00 | 0.17 | 0.00 | 90 | 1015.7 |
| 20260508064019 | 49 | 99 | 0.0 | 0.0 | 0.00 | 0.17 | 0.00 | 90 | 1015.7 |
| 20260508063519 | 50 | 99 | 0.0 | 0.0 | 0.00 | 0.17 | 0.00 | 90 | 1015.6 |
| 20260508063021 | 50 | 99 | 0.0 | 0.0 | 0.00 | 0.17 | 0.00 | 90 | 1015.7 |
| 20260508062516 | 50 | 99 | 0.0 | 0.0 | 0.00 | 0.17 | 0.00 | 90 | 1015.7 |
| 20260508062016 | 50 | 99 | 0.0 | 0.0 | 0.00 | 0.17 | 0.00 | 90 | 1015.7 |
| 20260508061516 | 50 | 99 | 0.0 | 0.0 | 0.00 | 0.17 | 0.00 | 90 | 1015.6 |
| 20260508061016 | 50 | 99 | 0.0 | 0.0 | 0.00 | 0.17 | 0.00 | 90 | 1015.7 |
| 20260508060518 | 50 | 99 | 0.0 | 0.0 | 0.00 | 0.17 | 0.00 | 90 | 1015.8 |
| 20260508060014 | 50 | 99 | 0.0 | 0.0 | 0.00 | 0.17 | 0.00 | 90 | 1015.8 |
| 20260508055513 | 50 | 99 | 0.0 | 0.0 | 0.00 | 0.17 | 0.00 | 89 | 1015.6 |
| 20260508055017 | 50 | 99 | 0.0 | 1.0 | 0.00 | 0.17 | 0.00 | 89 | 1015.5 |
| 20260508054519 | 51 | 99 | 0.0 | 1.0 | 0.00 | 0.17 | 0.00 | 89 | 1015.5 |
| 20260508054011 | 51 | 99 | 0.0 | 1.0 | 0.00 | 0.17 | 0.00 | 89 | 1015.5 |
| 20260508053511 | 51 | 99 | 0.0 | 0.0 | 0.00 | 0.17 | 0.00 | 89 | 1015.6 |
| 20260508053010 | 51 | 99 | 0.0 | 0.0 | 0.00 | 0.17 | 0.00 | 89 | 1015.6 |
| 20260508052511 | 51 | 99 | 0.0 | 0.0 | 0.00 | 0.17 | 0.00 | 89 | 1015.6 |
| 20260508052008 | 51 | 99 | 0.0 | 0.0 | 0.00 | 0.17 | 0.00 | 89 | 1015.6 |
| 20260508051514 | 52 | 99 | 0.0 | 0.0 | 0.00 | 0.17 | 0.00 | 88 | 1015.5 |
| 20260508051008 | 52 | 99 | 0.0 | 0.0 | 0.00 | 0.17 | 0.00 | 88 | 1015.3 |
| 20260508050508 | 52 | 99 | 0.0 | 0.0 | 0.00 | 0.17 | 0.00 | 88 | 1015.3 |
| 20260508050015 | 52 | 99 | 0.0 | 0.0 | 0.00 | 0.17 | 0.00 | 88 | 1015.4 |
| 20260508045506 | 52 | 99 | 0.0 | 0.0 | 0.00 | 0.28 | 0.00 | 87 | 1015.4 |
| 20260508045007 | 52 | 99 | 0.0 | 0.0 | 0.00 | 0.28 | 0.00 | 87 | 1015.5 |
| 20260508044506 | 52 | 99 | 0.0 | 1.0 | 0.00 | 0.28 | 0.00 | 87 | 1015.4 |
| 20260508044004 | 52 | 99 | 0.0 | 1.0 | 0.00 | 0.28 | 0.00 | 87 | 1015.4 |
| 20260508043505 | 53 | 99 | 0.0 | 0.0 | 0.00 | 0.28 | 0.00 | 87 | 1015.3 |
| 20260508043003 | 53 | 99 | 0.0 | 0.0 | 0.00 | 0.28 | 0.00 | 87 | 1015.3 |
| 20260508042503 | 53 | 99 | 0.0 | 0.0 | 0.00 | 0.28 | 0.00 | 86 | 1015.3 |
| 20260508042002 | 53 | 99 | 0.0 | 0.0 | 0.00 | 0.28 | 0.00 | 86 | 1015.3 |
| 20260508041501 | 53 | 99 | 0.0 | 0.0 | 0.00 | 0.28 | 0.00 | 86 | 1015.2 |
| 20260508041100 | 53 | 99 | 0.0 | 0.0 | 0.00 | 0.28 | 0.00 | 86 | 1015.1 |
| 20260508040602 | 53 | 99 | 0.0 | 0.0 | 0.00 | 0.28 | 0.00 | 86 | 1015.1 |
| 20260508040105 | 53 | 99 | 0.0 | 0.0 | 0.00 | 0.28 | 0.00 | 86 | 1015.0 |
| 20260508035601 | 53 | 99 | 0.0 | 0.0 | 0.00 | 0.31 | 0.28 | 85 | 1015.0 |
| 20260508035057 | 54 | 99 | 0.0 | 0.0 | 0.00 | 0.31 | 0.28 | 85 | 1015.1 |
| 20260508034557 | 54 | 99 | 0.0 | 0.0 | 0.00 | 0.31 | 0.28 | 85 | 1015.1 |
| 20260508034055 | 54 | 99 | 0.0 | 0.0 | 0.00 | 0.31 | 0.28 | 85 | 1015.0 |
| 20260508033555 | 54 | 99 | 0.0 | 0.0 | 0.00 | 0.31 | 0.28 | 85 | 1014.9 |
| 20260508033057 | 54 | 99 | 0.0 | 0.0 | 0.00 | 0.31 | 0.28 | 85 | 1015.0 |
| 20260508032556 | 54 | 99 | 0.0 | 0.0 | 0.00 | 0.31 | 0.28 | 85 | 1014.9 |
| 20260508032053 | 54 | 99 | 0.0 | 1.0 | 0.00 | 0.31 | 0.28 | 85 | 1015.0 |
| 20260508031602 | 55 | 99 | 0.0 | 1.0 | 0.00 | 0.31 | 0.28 | 84 | 1014.8 |
| 20260508031052 | 55 | 99 | 0.0 | 0.0 | 0.00 | 0.31 | 0.28 | 84 | 1014.9 |
| 20260508030552 | 55 | 99 | 0.0 | 0.0 | 0.00 | 0.31 | 0.28 | 84 | 1014.8 |
| 20260508030100 | 55 | 99 | 0.0 | 0.0 | 0.00 | 0.31 | 0.28 | 84 | 1014.7 |
| 20260508025551 | 55 | 99 | 0.0 | 0.0 | 0.00 | 0.39 | 0.28 | 84 | 1014.8 |
| 20260508025051 | 55 | 99 | 0.0 | 0.0 | 0.00 | 0.39 | 0.28 | 84 | 1014.7 |
| 20260508024550 | 55 | 99 | 0.0 | 0.0 | 0.00 | 0.39 | 0.28 | 84 | 1014.6 |
| 20260508024053 | 55 | 99 | 0.0 | 1.0 | 0.00 | 0.39 | 0.28 | 84 | 1014.6 |
| 20260508023551 | 55 | 99 | 0.0 | 1.0 | 0.00 | 0.39 | 0.28 | 84 | 1014.5 |
| 20260508023050 | 56 | 99 | 0.0 | 1.0 | 0.00 | 0.39 | 0.28 | 84 | 1014.6 |
| 20260508022551 | 56 | 99 | 0.0 | 0.0 | 0.00 | 0.39 | 0.28 | 84 | 1014.6 |
| 20260508022049 | 56 | 99 | 0.0 | 0.0 | 0.00 | 0.39 | 0.28 | 83 | 1014.6 |
| 20260508021551 | 56 | 99 | 0.0 | 2.0 | 0.00 | 0.39 | 0.28 | 83 | 1014.6 |
| 20260508021048 | 56 | 99 | 1.0 | 3.0 | 0.00 | 0.39 | 0.28 | 83 | 1014.5 |
| 20260508020547 | 57 | 103 | 1.0 | 3.0 | 0.00 | 0.39 | 0.28 | 83 | 1014.5 |
| 20260508020050 | 57 | 128 | 1.0 | 2.0 | 0.00 | 0.39 | 0.28 | 82 | 1014.3 |
| 20260508015547 | 58 | 240 | 0.0 | 1.0 | 0.00 | 0.39 | 0.28 | 80 | 1014.3 |
| 20260508015048 | 58 | 240 | 0.0 | 1.0 | 0.00 | 0.39 | 0.28 | 80 | 1014.3 |
| 20260508014546 | 58 | 240 | 0.0 | 1.0 | 0.00 | 0.39 | 0.28 | 79 | 1014.3 |
| 20260508014046 | 59 | 240 | 0.0 | 1.0 | 0.00 | 0.39 | 0.28 | 78 | 1014.2 |
| 20260508013544 | 59 | 240 | 0.0 | 0.0 | 0.00 | 0.39 | 0.28 | 78 | 1014.1 |
| 20260508013044 | 59 | 240 | 0.0 | 0.0 | 0.00 | 0.39 | 0.28 | 77 | 1014.2 |
| 20260508012543 | 60 | 240 | 0.0 | 1.0 | 0.00 | 0.39 | 0.28 | 76 | 1014.1 |
| 20260508012047 | 60 | 240 | 0.0 | 1.0 | 0.00 | 0.39 | 0.28 | 76 | 1013.9 |
| 20260508011546 | 60 | 240 | 0.0 | 1.0 | 0.00 | 0.39 | 0.28 | 74 | 1013.9 |
| 20260508011043 | 60 | 240 | 0.0 | 2.0 | 0.00 | 0.39 | 0.28 | 72 | 1013.7 |
| 20260508010540 | 61 | 240 | 0.0 | 2.0 | 0.00 | 0.39 | 0.28 | 71 | 1013.6 |
| 20260508010041 | 61 | 240 | 0.0 | 0.0 | 0.00 | 0.39 | 0.28 | 70 | 1013.5 |
| 20260508005543 | 61 | 240 | 0.0 | 0.0 | 0.00 | 0.46 | 0.28 | 71 | 1013.6 |
| 20260508005042 | 61 | 240 | 0.0 | 0.0 | 0.00 | 0.46 | 0.28 | 72 | 1013.5 |
| 20260508004541 | 61 | 240 | 0.0 | 1.0 | 0.00 | 0.46 | 0.28 | 72 | 1013.4 |
| 20260508004039 | 61 | 240 | 0.0 | 1.0 | 0.00 | 0.46 | 0.28 | 72 | 1013.3 |
| 20260508003539 | 61 | 236 | 0.0 | 0.0 | 0.00 | 0.46 | 0.28 | 71 | 1013.3 |
| 20260508003039 | 61 | 236 | 0.0 | 0.0 | 0.00 | 0.46 | 0.28 | 72 | 1013.2 |
| 20260508002539 | 61 | 236 | 0.0 | 0.0 | 0.00 | 0.46 | 0.28 | 70 | 1013.3 |
| 20260508002043 | 62 | 236 | 0.0 | 1.0 | 0.00 | 0.46 | 0.28 | 70 | 1013.1 |
| 20260508001539 | 62 | 236 | 0.0 | 2.0 | 0.00 | 0.46 | 0.28 | 68 | 1013.0 |
| 20260508001038 | 63 | 236 | 0.0 | 2.0 | 0.00 | 0.46 | 0.28 | 65 | 1012.8 |
| 20260508000538 | 63 | 236 | 0.0 | 2.0 | 0.00 | 0.46 | 0.28 | 64 | 1012.8 |
| 20260508000050 | 63 | 236 | 0.0 | 2.0 | 0.00 | 0.46 | 0.28 | 63 | 1012.8 |
| 20260507235541 | 64 | 236 | 0.0 | 2.0 | 0.00 | 0.56 | 0.28 | 66 | 1012.8 |
| 20260507235037 | 64 | 236 | 0.0 | 2.0 | 0.00 | 0.56 | 0.28 | 65 | 1012.8 |
| 20260507234544 | 64 | 236 | 0.0 | 2.0 | 0.00 | 0.56 | 0.28 | 65 | 1012.7 |
| 20260507234039 | 64 | 355 | 0.0 | 2.0 | 0.00 | 0.56 | 0.28 | 65 | 1012.6 |
| 20260507233537 | 64 | 355 | 0.0 | 2.0 | 0.00 | 0.56 | 0.28 | 64 | 1012.7 |
| 20260507233037 | 64 | 355 | 0.0 | 2.0 | 0.00 | 0.56 | 0.28 | 65 | 1012.8 |
| 20260507232537 | 64 | 125 | 0.0 | 2.0 | 0.00 | 0.56 | 0.28 | 64 | 1012.8 |
| 20260507232036 | 64 | 125 | 0.0 | 1.0 | 0.00 | 0.56 | 0.28 | 66 | 1012.8 |
| 20260507231543 | 64 | 338 | 0.0 | 1.0 | 0.00 | 0.56 | 0.28 | 67 | 1012.6 |
| 20260507231036 | 64 | 338 | 0.0 | 1.0 | 0.00 | 0.56 | 0.28 | 69 | 1012.6 |
| 20260507230540 | 64 | 338 | 0.0 | 1.0 | 0.00 | 0.56 | 0.28 | 68 | 1012.6 |
| 20260507230038 | 64 | 338 | 0.0 | 1.0 | 0.00 | 0.56 | 0.28 | 66 | 1012.6 |
| 20260507225536 | 65 | 338 | 0.0 | 1.0 | 0.00 | 1.00 | 0.28 | 66 | 1012.7 |
| 20260507225036 | 65 | 338 | 0.0 | 2.0 | 0.00 | 1.00 | 0.28 | 62 | 1012.6 |
| 20260507224536 | 66 | 338 | 1.0 | 3.0 | 0.00 | 1.00 | 0.28 | 61 | 1012.6 |
| 20260507224035 | 66 | 306 | 0.0 | 3.0 | 0.00 | 1.00 | 0.28 | 59 | 1012.6 |
| 20260507223538 | 67 | 331 | 1.0 | 3.0 | 0.00 | 1.00 | 0.28 | 60 | 1012.6 |
| 20260507223035 | 67 | 291 | 0.0 | 3.0 | 0.00 | 1.00 | 0.28 | 62 | 1012.5 |
| 20260507222535 | 67 | 262 | 0.0 | 2.0 | 0.00 | 1.00 | 0.28 | 62 | 1012.6 |
| 20260507222035 | 67 | 253 | 0.0 | 2.0 | 0.00 | 1.00 | 0.28 | 61 | 1012.5 |
| 20260507221534 | 67 | 258 | 0.0 | 3.0 | 0.00 | 1.00 | 0.28 | 63 | 1012.5 |
| 20260507221034 | 67 | 311 | 1.0 | 4.0 | 0.00 | 1.00 | 0.28 | 60 | 1012.5 |
| 20260507220539 | 67 | 307 | 1.0 | 4.0 | 0.00 | 1.00 | 0.28 | 62 | 1012.5 |
| 20260507220034 | 67 | 298 | 2.0 | 4.0 | 0.00 | 1.00 | 0.28 | 59 | 1012.5 |
| 20260507215534 | 67 | 298 | 1.0 | 3.0 | 0.00 | 1.18 | 0.28 | 63 | 1012.5 |
| 20260507215035 | 67 | 331 | 1.0 | 3.0 | 0.00 | 1.18 | 0.28 | 61 | 1012.5 |
| 20260507214539 | 67 | 161 | 0.0 | 4.0 | 0.00 | 1.18 | 0.28 | 62 | 1012.4 |
| 20260507214034 | 67 | 269 | 1.0 | 4.0 | 0.00 | 1.18 | 0.28 | 62 | 1012.4 |
| 20260507213534 | 67 | 294 | 1.0 | 3.0 | 0.00 | 1.18 | 0.28 | 63 | 1012.4 |
| 20260507213039 | 67 | 273 | 1.0 | 2.0 | 0.00 | 1.18 | 0.28 | 62 | 1012.3 |
| 20260507212533 | 67 | 305 | 1.0 | 2.0 | 0.00 | 1.18 | 0.28 | 66 | 1012.3 |
| 20260507212035 | 67 | 337 | 1.0 | 3.0 | 0.00 | 1.18 | 0.28 | 60 | 1012.2 |
| 20260507211542 | 68 | 283 | 1.0 | 3.0 | 0.00 | 1.18 | 0.28 | 61 | 1012.1 |
| 20260507211029 | 67 | 341 | 1.0 | 2.0 | 0.00 | 1.18 | 0.28 | 66 | 1012.1 |
| 20260507210530 | 67 | 261 | 1.0 | 4.0 | 0.00 | 1.18 | 0.28 | 62 | 1012.1 |
| 20260507210029 | 67 | 240 | 2.0 | 4.0 | 0.00 | 1.18 | 0.28 | 64 | 1012.1 |
| 20260507205529 | 66 | 10 | 1.0 | 3.0 | 0.00 | 1.30 | 0.28 | 64 | 1012.0 |
| 20260507205027 | 66 | 355 | 0.0 | 3.0 | 0.00 | 1.30 | 0.28 | 66 | 1012.2 |
| 20260507204527 | 65 | 346 | 1.0 | 2.0 | 0.00 | 1.30 | 0.28 | 69 | 1012.0 |
| 20260507204027 | 65 | 265 | 0.0 | 2.0 | 0.00 | 1.30 | 0.28 | 69 | 1011.9 |
| 20260507203527 | 65 | 265 | 0.0 | 2.0 | 0.00 | 1.30 | 0.28 | 71 | 1011.9 |
| 20260507203026 | 64 | 346 | 0.0 | 2.0 | 0.00 | 1.30 | 0.28 | 70 | 1012.0 |
| 20260507202525 | 64 | 42 | 0.0 | 1.0 | 0.00 | 1.30 | 0.28 | 76 | 1012.0 |
| 20260507202026 | 64 | 42 | 0.0 | 1.0 | 0.00 | 1.30 | 0.28 | 75 | 1012.0 |
| 20260507201525 | 64 | 42 | 0.0 | 2.0 | 0.00 | 1.30 | 0.28 | 73 | 1011.9 |
| 20260507201025 | 64 | 249 | 0.0 | 2.0 | 0.00 | 1.30 | 0.28 | 72 | 1012.0 |
| 20260507200525 | 65 | 259 | 0.0 | 2.0 | 0.00 | 1.30 | 0.28 | 75 | 1012.0 |
| 20260507200025 | 65 | 259 | 0.0 | 2.0 | 0.00 | 1.30 | 0.28 | 73 | 1012.0 |
| 20260507195525 | 65 | 249 | 0.0 | 4.0 | 0.00 | 1.36 | 0.28 | 73 | 1012.1 |
| 20260507195025 | 65 | 249 | 1.0 | 4.0 | 0.00 | 1.36 | 0.28 | 71 | 1012.1 |
| 20260507194526 | 65 | 355 | 1.0 | 3.0 | 0.00 | 1.36 | 0.28 | 73 | 1012.2 |
| 20260507194025 | 64 | 355 | 0.0 | 4.0 | 0.00 | 1.36 | 0.28 | 70 | 1012.3 |
| 20260507193525 | 65 | 248 | 1.0 | 4.0 | 0.00 | 1.36 | 0.28 | 70 | 1012.2 |
| 20260507193026 | 65 | 249 | 0.0 | 2.0 | 0.00 | 1.36 | 0.28 | 71 | 1012.3 |
| 20260507192523 | 65 | 213 | 0.0 | 3.0 | 0.00 | 1.36 | 0.28 | 70 | 1012.4 |
| 20260507192023 | 66 | 219 | 1.0 | 3.0 | 0.00 | 1.36 | 0.28 | 68 | 1012.3 |
| 20260507191527 | 65 | 340 | 0.0 | 2.0 | 0.00 | 1.36 | 0.28 | 72 | 1012.4 |
| 20260507191025 | 65 | 5 | 0.0 | 2.0 | 0.00 | 1.36 | 0.28 | 71 | 1012.4 |
| 20260507190524 | 65 | 355 | 1.0 | 3.0 | 0.00 | 1.36 | 0.28 | 72 | 1012.6 |
| 20260507190022 | 65 | 5 | 1.0 | 3.0 | 0.00 | 1.36 | 0.28 | 70 | 1012.7 |
| 20260507185520 | 64 | 355 | 0.0 | 3.0 | 0.00 | 1.57 | 0.28 | 72 | 1012.7 |
| 20260507185020 | 65 | 12 | 1.0 | 3.0 | 0.00 | 1.57 | 0.28 | 74 | 1012.7 |
| 20260507184520 | 64 | 338 | 0.0 | 4.0 | 0.00 | 1.57 | 0.28 | 73 | 1012.7 |
| 20260507184022 | 64 | 80 | 2.0 | 4.0 | 0.00 | 1.57 | 0.28 | 72 | 1012.6 |
| 20260507183518 | 63 | 117 | 1.0 | 5.0 | 0.00 | 1.57 | 0.28 | 71 | 1012.7 |
| 20260507183018 | 64 | 124 | 2.0 | 3.0 | 0.00 | 1.57 | 0.28 | 71 | 1012.7 |
| 20260507182518 | 63 | 96 | 0.0 | 2.0 | 0.00 | 1.57 | 0.28 | 74 | 1012.7 |
| 20260507182017 | 63 | 72 | 0.0 | 2.0 | 0.00 | 1.57 | 0.28 | 74 | 1012.9 |
| 20260507181518 | 63 | 194 | 0.0 | 2.0 | 0.00 | 1.57 | 0.28 | 72 | 1012.9 |
| 20260507181022 | 63 | 132 | 0.0 | 3.0 | 0.00 | 1.57 | 0.28 | 75 | 1012.8 |
| 20260507180517 | 63 | 13 | 0.0 | 3.0 | 0.00 | 1.57 | 0.28 | 73 | 1012.8 |
| 20260507180018 | 63 | 141 | 0.0 | 2.0 | 0.00 | 1.57 | 0.28 | 81 | 1012.8 |
| 20260507175522 | 62 | 156 | 1.0 | 2.0 | 0.00 | 1.57 | 0.28 | 72 | 1012.8 |
| 20260507175017 | 62 | 43 | 1.0 | 3.0 | 0.00 | 1.57 | 0.28 | 77 | 1012.9 |
| 20260507174538 | 62 | 154 | 0.0 | 3.0 | 0.00 | 1.57 | 0.28 | 74 | 1012.9 |